| time (UTC) | temp C | wind direction | speed KPH | gust KPH | rain 1hr cm | rain 24hr cm | rain mn cm | humidity % | barometer mb |
| 20260506172531 | 17 | 0 | 0.0 | 1.6 | 0.00 | 0.00 | 0.00 | 66 | 1017.0 |
| 20260506172032 | 17 | 0 | 0.0 | 1.6 | 0.00 | 0.00 | 0.00 | 65 | 1016.9 |
| 20260506171554 | 18 | 0 | 0.0 | 1.6 | 0.00 | 0.00 | 0.00 | 64 | 1016.9 |
| 20260506171030 | 18 | 0 | 0.0 | 3.2 | 0.00 | 0.00 | 0.00 | 63 | 1016.9 |
| 20260506170530 | 19 | 0 | 0.0 | 3.2 | 0.00 | 0.00 | 0.00 | 61 | 1016.9 |
| 20260506170045 | 20 | 229 | 0.0 | 3.2 | 0.00 | 0.00 | 0.00 | 60 | 1016.9 |
| 20260506165533 | 20 | 0 | 0.0 | 0.0 | 0.00 | 0.00 | 0.00 | 59 | 1016.8 |
| 20260506165030 | 20 | 0 | 0.0 | 0.0 | 0.00 | 0.00 | 0.00 | 58 | 1016.9 |
| 20260506164543 | 20 | 0 | 0.0 | 3.2 | 0.00 | 0.00 | 0.00 | 57 | 1016.8 |
| 20260506164029 | 20 | 0 | 0.0 | 3.2 | 0.00 | 0.00 | 0.00 | 56 | 1016.8 |
| 20260506163532 | 21 | 0 | 0.0 | 1.6 | 0.00 | 0.00 | 0.00 | 55 | 1016.7 |
| 20260506163058 | 21 | 0 | 0.0 | 4.8 | 0.00 | 0.00 | 0.00 | 53 | 1016.7 |
| 20260506162532 | 21 | 0 | 0.0 | 4.8 | 0.00 | 0.00 | 0.00 | 52 | 1016.7 |
| 20260506162033 | 21 | 229 | 3.2 | 6.4 | 0.00 | 0.00 | 0.00 | 51 | 1016.6 |
| 20260506161544 | 21 | 229 | 3.2 | 6.4 | 0.00 | 0.00 | 0.00 | 52 | 1016.7 |
| 20260506161032 | 21 | 0 | 3.2 | 6.4 | 0.00 | 0.00 | 0.00 | 52 | 1016.7 |
| 20260506160535 | 21 | 223 | 3.2 | 8.0 | 0.00 | 0.00 | 0.00 | 52 | 1016.7 |
| 20260506160042 | 21 | 223 | 4.8 | 11.3 | 0.00 | 0.00 | 0.00 | 52 | 1016.7 |
| 20260506155529 | 21 | 229 | 4.8 | 11.3 | 0.00 | 0.00 | 0.00 | 52 | 1016.7 |
| 20260506155029 | 21 | 229 | 4.8 | 8.0 | 0.00 | 0.00 | 0.00 | 51 | 1016.7 |
| 20260506154555 | 21 | 219 | 4.8 | 9.7 | 0.00 | 0.00 | 0.00 | 52 | 1016.8 |
| 20260506154031 | 21 | 246 | 4.8 | 9.7 | 0.00 | 0.00 | 0.00 | 52 | 1016.8 |
| 20260506153531 | 21 | 231 | 6.4 | 12.9 | 0.00 | 0.00 | 0.00 | 52 | 1016.9 |
| 20260506153042 | 21 | 244 | 4.8 | 12.9 | 0.00 | 0.00 | 0.00 | 53 | 1016.8 |
| 20260506152530 | 21 | 261 | 6.4 | 11.3 | 0.00 | 0.00 | 0.00 | 51 | 1016.8 |
| 20260506152032 | 21 | 242 | 6.4 | 11.3 | 0.00 | 0.00 | 0.00 | 51 | 1016.8 |
| 20260506151544 | 21 | 228 | 4.8 | 12.9 | 0.00 | 0.00 | 0.00 | 50 | 1016.9 |
| 20260506151029 | 21 | 223 | 8.0 | 14.5 | 0.00 | 0.00 | 0.00 | 50 | 1016.9 |
| 20260506150530 | 21 | 216 | 8.0 | 14.5 | 0.00 | 0.00 | 0.00 | 49 | 1017.1 |
| 20260506150041 | 21 | 222 | 6.4 | 12.9 | 0.00 | 0.00 | 0.00 | 49 | 1016.9 |
| 20260506145531 | 21 | 238 | 9.7 | 14.5 | 0.00 | 0.00 | 0.00 | 49 | 1017.1 |
| 20260506145034 | 21 | 229 | 6.4 | 19.3 | 0.00 | 0.00 | 0.00 | 49 | 1017.1 |
| 20260506144541 | 21 | 237 | 8.0 | 19.3 | 0.00 | 0.00 | 0.00 | 48 | 1017.1 |
| 20260506144033 | 21 | 242 | 8.0 | 19.3 | 0.00 | 0.00 | 0.00 | 48 | 1017.2 |
| 20260506143533 | 21 | 217 | 8.0 | 19.3 | 0.00 | 0.00 | 0.00 | 50 | 1017.0 |
| 20260506143045 | 21 | 239 | 8.0 | 19.3 | 0.00 | 0.00 | 0.00 | 48 | 1017.1 |
| 20260506142533 | 22 | 217 | 9.7 | 19.3 | 0.00 | 0.00 | 0.00 | 48 | 1017.2 |
| 20260506142034 | 22 | 206 | 9.7 | 17.7 | 0.00 | 0.00 | 0.00 | 48 | 1017.1 |
| 20260506141549 | 22 | 214 | 8.0 | 17.7 | 0.00 | 0.00 | 0.00 | 49 | 1017.2 |
| 20260506141035 | 22 | 230 | 8.0 | 12.9 | 0.00 | 0.00 | 0.00 | 49 | 1017.2 |
| 20260506140535 | 22 | 254 | 8.0 | 12.9 | 0.00 | 0.00 | 0.00 | 48 | 1017.2 |
| 20260506140053 | 22 | 216 | 4.8 | 12.9 | 0.00 | 0.00 | 0.00 | 50 | 1017.3 |
| 20260506135531 | 21 | 225 | 6.4 | 12.9 | 0.00 | 0.00 | 0.00 | 50 | 1017.3 |
| 20260506135032 | 22 | 294 | 8.0 | 14.5 | 0.00 | 0.00 | 0.00 | 48 | 1017.3 |
| 20260506134542 | 22 | 229 | 6.4 | 14.5 | 0.00 | 0.00 | 0.00 | 49 | 1017.3 |
| 20260506134031 | 21 | 242 | 4.8 | 14.5 | 0.00 | 0.00 | 0.00 | 52 | 1017.4 |
| 20260506133531 | 21 | 270 | 6.4 | 14.5 | 0.00 | 0.00 | 0.00 | 53 | 1017.3 |
| 20260506133040 | 21 | 240 | 8.0 | 16.1 | 0.00 | 0.00 | 0.00 | 52 | 1017.5 |
| 20260506132531 | 21 | 301 | 8.0 | 16.1 | 0.00 | 0.00 | 0.00 | 53 | 1017.5 |
| 20260506132032 | 21 | 285 | 6.4 | 16.1 | 0.00 | 0.00 | 0.00 | 54 | 1017.4 |
| 20260506131546 | 21 | 304 | 8.0 | 14.5 | 0.00 | 0.00 | 0.00 | 52 | 1017.4 |
| 20260506131031 | 22 | 326 | 6.4 | 12.9 | 0.00 | 0.00 | 0.00 | 49 | 1017.4 |
| 20260506130531 | 22 | 282 | 4.8 | 11.3 | 0.00 | 0.00 | 0.00 | 50 | 1017.4 |
| 20260506130048 | 22 | 309 | 4.8 | 12.9 | 0.00 | 0.00 | 0.00 | 48 | 1017.4 |
| 20260506125532 | 22 | 257 | 6.4 | 17.7 | 0.00 | 0.00 | 0.00 | 48 | 1017.4 |
| 20260506125030 | 22 | 230 | 9.7 | 17.7 | 0.00 | 0.00 | 0.00 | 48 | 1017.4 |
| 20260506124544 | 22 | 234 | 8.0 | 16.1 | 0.00 | 0.00 | 0.00 | 47 | 1017.5 |
| 20260506124032 | 22 | 227 | 6.4 | 16.1 | 0.00 | 0.00 | 0.00 | 47 | 1017.4 |
| 20260506123531 | 22 | 213 | 8.0 | 16.1 | 0.00 | 0.00 | 0.00 | 47 | 1017.5 |
| 20260506123043 | 22 | 229 | 9.7 | 14.5 | 0.00 | 0.00 | 0.00 | 48 | 1017.5 |
| 20260506122532 | 22 | 204 | 8.0 | 16.1 | 0.00 | 0.00 | 0.00 | 50 | 1017.4 |
| 20260506122033 | 22 | 246 | 9.7 | 16.1 | 0.00 | 0.00 | 0.00 | 48 | 1017.4 |
| 20260506121543 | 22 | 238 | 9.7 | 17.7 | 0.00 | 0.00 | 0.00 | 48 | 1017.5 |
| 20260506121031 | 22 | 235 | 9.7 | 19.3 | 0.00 | 0.00 | 0.00 | 48 | 1017.6 |
| 20260506120531 | 22 | 230 | 11.3 | 19.3 | 0.00 | 0.00 | 0.00 | 48 | 1017.6 |
| 20260506120106 | 22 | 262 | 9.7 | 17.7 | 0.00 | 0.00 | 0.00 | 46 | 1017.7 |
| 20260506115531 | 22 | 240 | 11.3 | 19.3 | 0.00 | 0.00 | 0.00 | 46 | 1017.5 |
| 20260506115031 | 22 | 271 | 11.3 | 22.5 | 0.00 | 0.00 | 0.00 | 44 | 1017.6 |
| 20260506114551 | 22 | 235 | 12.9 | 22.5 | 0.00 | 0.00 | 0.00 | 44 | 1017.8 |
| 20260506114030 | 22 | 236 | 9.7 | 20.9 | 0.00 | 0.00 | 0.00 | 45 | 1017.9 |
| 20260506113530 | 22 | 221 | 9.7 | 20.9 | 0.00 | 0.00 | 0.00 | 44 | 1017.8 |
| 20260506113044 | 22 | 251 | 14.5 | 22.5 | 0.00 | 0.00 | 0.00 | 42 | 1017.8 |
| 20260506112532 | 22 | 242 | 14.5 | 22.5 | 0.00 | 0.00 | 0.00 | 42 | 1017.8 |
| 20260506112029 | 22 | 213 | 11.3 | 20.9 | 0.00 | 0.00 | 0.00 | 43 | 1017.8 |
| 20260506111544 | 22 | 246 | 12.9 | 19.3 | 0.00 | 0.00 | 0.00 | 43 | 1017.7 |
| 20260506111030 | 22 | 219 | 11.3 | 17.7 | 0.00 | 0.00 | 0.00 | 45 | 1017.7 |
| 20260506110530 | 21 | 312 | 8.0 | 16.1 | 0.00 | 0.00 | 0.00 | 45 | 1017.8 |
| 20260506110041 | 21 | 299 | 8.0 | 16.1 | 0.00 | 0.00 | 0.00 | 46 | 1017.7 |
| 20260506105531 | 21 | 290 | 8.0 | 16.1 | 0.00 | 0.00 | 0.00 | 45 | 1017.8 |
| 20260506105031 | 21 | 247 | 8.0 | 16.1 | 0.00 | 0.00 | 0.00 | 46 | 1017.8 |
| 20260506104543 | 21 | 300 | 9.7 | 16.1 | 0.00 | 0.00 | 0.00 | 46 | 1017.8 |
| 20260506104030 | 21 | 265 | 8.0 | 16.1 | 0.00 | 0.00 | 0.00 | 46 | 1017.8 |
| 20260506103530 | 21 | 333 | 8.0 | 16.1 | 0.00 | 0.00 | 0.00 | 47 | 1017.9 |
| 20260506103046 | 21 | 254 | 9.7 | 16.1 | 0.00 | 0.00 | 0.00 | 49 | 1017.9 |
| 20260506102534 | 21 | 313 | 8.0 | 14.5 | 0.00 | 0.00 | 0.00 | 48 | 1017.9 |
| 20260506102029 | 21 | 263 | 3.2 | 12.9 | 0.00 | 0.00 | 0.00 | 52 | 1017.8 |
| 20260506101545 | 21 | 329 | 3.2 | 9.7 | 0.00 | 0.00 | 0.00 | 53 | 1017.9 |
| 20260506101028 | 20 | 347 | 1.6 | 9.7 | 0.00 | 0.00 | 0.00 | 56 | 1017.8 |
| 20260506100530 | 20 | 29 | 4.8 | 9.7 | 0.00 | 0.00 | 0.00 | 59 | 1017.8 |
| 20260506100047 | 20 | 62 | 3.2 | 9.7 | 0.00 | 0.00 | 0.00 | 58 | 1017.9 |
| 20260506095530 | 20 | 46 | 4.8 | 9.7 | 0.00 | 0.00 | 0.00 | 60 | 1018.0 |
| 20260506095031 | 20 | 48 | 4.8 | 12.9 | 0.00 | 0.00 | 0.00 | 62 | 1018.0 |
| 20260506094546 | 20 | 71 | 6.4 | 12.9 | 0.00 | 0.00 | 0.00 | 62 | 1018.1 |
| 20260506094029 | 19 | 19 | 6.4 | 12.9 | 0.00 | 0.00 | 0.00 | 64 | 1018.1 |
| 20260506093532 | 19 | 40 | 6.4 | 12.9 | 0.00 | 0.00 | 0.00 | 64 | 1018.1 |
| 20260506093101 | 19 | 55 | 6.4 | 14.5 | 0.00 | 0.00 | 0.00 | 64 | 1018.1 |
| 20260506092530 | 19 | 49 | 6.4 | 16.1 | 0.00 | 0.00 | 0.00 | 65 | 1018.1 |
| 20260506092030 | 18 | 338 | 6.4 | 16.1 | 0.00 | 0.00 | 0.00 | 65 | 1017.9 |
| 20260506091545 | 18 | 58 | 8.0 | 16.1 | 0.00 | 0.00 | 0.00 | 65 | 1018.1 |
| 20260506091030 | 18 | 51 | 8.0 | 16.1 | 0.00 | 0.00 | 0.00 | 65 | 1018.1 |
| 20260506090529 | 18 | 48 | 8.0 | 16.1 | 0.00 | 0.00 | 0.00 | 66 | 1018.0 |
| 20260506090051 | 18 | 36 | 8.0 | 16.1 | 0.00 | 0.00 | 0.00 | 65 | 1018.2 |
| 20260506085530 | 18 | 38 | 9.7 | 17.7 | 0.00 | 0.00 | 0.00 | 65 | 1018.0 |
| 20260506085030 | 18 | 22 | 8.0 | 17.7 | 0.00 | 0.00 | 0.00 | 65 | 1018.0 |
| 20260506084545 | 18 | 35 | 6.4 | 16.1 | 0.00 | 0.00 | 0.00 | 66 | 1018.0 |
| 20260506084031 | 18 | 61 | 8.0 | 16.1 | 0.00 | 0.00 | 0.00 | 65 | 1018.0 |
| 20260506083531 | 18 | 52 | 6.4 | 17.7 | 0.00 | 0.00 | 0.00 | 66 | 1018.0 |
| 20260506083043 | 18 | 51 | 8.0 | 19.3 | 0.00 | 0.00 | 0.00 | 66 | 1017.9 |
| 20260506082531 | 18 | 57 | 9.7 | 19.3 | 0.00 | 0.00 | 0.00 | 65 | 1017.9 |
| 20260506082030 | 18 | 5 | 8.0 | 16.1 | 0.00 | 0.00 | 0.00 | 65 | 1018.0 |
| 20260506081544 | 18 | 51 | 8.0 | 16.1 | 0.00 | 0.00 | 0.00 | 65 | 1018.0 |
| 20260506081029 | 18 | 53 | 6.4 | 17.7 | 0.00 | 0.00 | 0.00 | 65 | 1017.9 |
| 20260506080529 | 18 | 38 | 8.0 | 17.7 | 0.00 | 0.00 | 0.00 | 64 | 1017.9 |
| 20260506073045 | 17 | 37 | 12.9 | 24.1 | 0.00 | 0.00 | 0.00 | 68 | 1017.7 |
| 20260506072531 | 17 | 53 | 11.3 | 22.5 | 0.00 | 0.00 | 0.00 | 69 | 1017.6 |
| 20260506072029 | 17 | 38 | 12.9 | 22.5 | 0.00 | 0.00 | 0.00 | 69 | 1017.7 |
| 20260506071546 | 17 | 78 | 11.3 | 22.5 | 0.00 | 0.00 | 0.00 | 70 | 1017.6 |
| 20260506071030 | 17 | 37 | 9.7 | 22.5 | 0.00 | 0.00 | 0.00 | 70 | 1017.5 |
| 20260506070533 | 17 | 44 | 11.3 | 22.5 | 0.00 | 0.00 | 0.00 | 70 | 1017.5 |
| 20260506062030 | 17 | 71 | 9.7 | 17.7 | 0.00 | 0.00 | 0.00 | 71 | 1017.4 |
| 20260506061557 | 17 | 76 | 9.7 | 17.7 | 0.00 | 0.00 | 0.00 | 71 | 1017.4 |
| 20260506061030 | 17 | 21 | 9.7 | 17.7 | 0.00 | 0.00 | 0.00 | 71 | 1017.5 |
| 20260506060530 | 17 | 58 | 9.7 | 17.7 | 0.00 | 0.00 | 0.00 | 71 | 1017.5 |
| 20260506051033 | 16 | 0 | 1.6 | 6.4 | 0.00 | 0.00 | 0.00 | 69 | 1017.4 |
| 20260506050530 | 16 | 0 | 1.6 | 6.4 | 0.00 | 0.00 | 0.00 | 67 | 1017.5 |
| 20260506045029 | 15 | 0 | 0.0 | 0.0 | 0.00 | 0.00 | 0.00 | 70 | 1017.6 |
| 20260506044545 | 14 | 0 | 0.0 | 0.0 | 0.00 | 0.00 | 0.00 | 73 | 1017.5 |
| 20260506044031 | 13 | 0 | 0.0 | 0.0 | 0.00 | 0.00 | 0.00 | 75 | 1017.4 |
| 20260506043532 | 13 | 0 | 0.0 | 0.0 | 0.00 | 0.00 | 0.00 | 77 | 1017.3 |
| 20260506043051 | 13 | 0 | 0.0 | 0.0 | 0.00 | 0.00 | 0.00 | 78 | 1017.3 |
| 20260506042532 | 12 | 0 | 0.0 | 0.0 | 0.00 | 0.00 | 0.00 | 80 | 1017.2 |
| 20260506042033 | 12 | 0 | 0.0 | 0.0 | 0.00 | 0.00 | 0.00 | 82 | 1017.2 |
| 20260506041552 | 12 | 0 | 0.0 | 0.0 | 0.00 | 0.00 | 0.00 | 82 | 1017.3 |
| 20260506041032 | 11 | 0 | 0.0 | 0.0 | 0.00 | 0.00 | 0.00 | 82 | 1017.3 |
| 20260506040534 | 11 | 0 | 0.0 | 0.0 | 0.00 | 0.00 | 0.00 | 83 | 1017.2 |
| 20260506040058 | 11 | 0 | 0.0 | 1.6 | 0.00 | 0.00 | 0.00 | 83 | 1017.2 |
| 20260506035532 | 11 | 0 | 0.0 | 4.8 | 0.00 | 0.00 | 0.00 | 83 | 1017.1 |
| 20260506035032 | 11 | 0 | 0.0 | 6.4 | 0.00 | 0.00 | 0.00 | 84 | 1017.1 |
| 20260506034546 | 11 | 0 | 1.6 | 8.0 | 0.00 | 0.00 | 0.00 | 84 | 1017.1 |
| 20260506034030 | 11 | 52 | 1.6 | 8.0 | 0.00 | 0.00 | 0.00 | 84 | 1017.0 |
| 20260506033531 | 10 | 55 | 3.2 | 8.0 | 0.00 | 0.00 | 0.00 | 84 | 1017.0 |
| 20260506033050 | 10 | 55 | 1.6 | 6.4 | 0.00 | 0.00 | 0.00 | 83 | 1017.0 |
| 20260506032532 | 10 | 0 | 0.0 | 3.2 | 0.00 | 0.00 | 0.00 | 82 | 1017.0 |
| 20260506032033 | 10 | 0 | 0.0 | 0.0 | 0.00 | 0.00 | 0.00 | 82 | 1016.7 |
| 20260506031547 | 10 | 0 | 0.0 | 0.0 | 0.00 | 0.00 | 0.00 | 82 | 1016.8 |
| 20260506031032 | 10 | 0 | 0.0 | 0.0 | 0.00 | 0.00 | 0.00 | 82 | 1016.8 |
| 20260506030533 | 10 | 0 | 0.0 | 0.0 | 0.00 | 0.00 | 0.00 | 82 | 1016.7 |
| 20260506030045 | 10 | 0 | 0.0 | 3.2 | 0.00 | 0.00 | 0.00 | 83 | 1016.6 |
| 20260506025533 | 10 | 0 | 0.0 | 6.4 | 0.00 | 0.00 | 0.00 | 83 | 1016.7 |
| 20260506025031 | 10 | 51 | 0.0 | 6.4 | 0.00 | 0.00 | 0.00 | 83 | 1016.6 |
| 20260506024546 | 10 | 0 | 0.0 | 1.6 | 0.00 | 0.00 | 0.00 | 82 | 1016.6 |
| 20260506024033 | 10 | 0 | 0.0 | 1.6 | 0.00 | 0.00 | 0.00 | 82 | 1016.6 |
| 20260506023533 | 10 | 0 | 0.0 | 1.6 | 0.00 | 0.00 | 0.00 | 82 | 1016.6 |
| 20260506023054 | 10 | 0 | 0.0 | 0.0 | 0.00 | 0.00 | 0.00 | 82 | 1016.6 |
| 20260506022531 | 10 | 0 | 0.0 | 0.0 | 0.00 | 0.00 | 0.00 | 82 | 1016.6 |
| 20260506022033 | 10 | 0 | 0.0 | 0.0 | 0.00 | 0.00 | 0.00 | 82 | 1016.6 |
| 20260506021547 | 10 | 0 | 0.0 | 1.6 | 0.00 | 0.00 | 0.00 | 82 | 1016.7 |
| 20260506021031 | 10 | 0 | 0.0 | 1.6 | 0.00 | 0.00 | 0.00 | 81 | 1016.6 |
| 20260506020530 | 10 | 0 | 0.0 | 1.6 | 0.00 | 0.00 | 0.00 | 81 | 1016.7 |
| 20260506020113 | 10 | 0 | 0.0 | 0.0 | 0.00 | 0.00 | 0.00 | 81 | 1016.6 |
| 20260506015534 | 10 | 0 | 0.0 | 0.0 | 0.00 | 0.00 | 0.00 | 81 | 1016.6 |
| 20260506015032 | 10 | 0 | 0.0 | 0.0 | 0.00 | 0.00 | 0.00 | 81 | 1016.8 |
| 20260506014546 | 10 | 0 | 0.0 | 0.0 | 0.00 | 0.00 | 0.00 | 81 | 1016.7 |
| 20260506014031 | 10 | 0 | 0.0 | 3.2 | 0.00 | 0.00 | 0.00 | 81 | 1016.9 |
| 20260506013534 | 10 | 0 | 0.0 | 3.2 | 0.00 | 0.00 | 0.00 | 81 | 1016.7 |
| 20260506013042 | 10 | 0 | 0.0 | 3.2 | 0.00 | 0.00 | 0.00 | 81 | 1016.6 |
| 20260506012531 | 10 | 0 | 0.0 | 0.0 | 0.00 | 0.00 | 0.00 | 81 | 1016.5 |
| 20260506012031 | 10 | 0 | 0.0 | 0.0 | 0.00 | 0.00 | 0.00 | 80 | 1016.5 |
| 20260506011546 | 10 | 0 | 0.0 | 0.0 | 0.00 | 0.00 | 0.00 | 80 | 1016.5 |
| 20260506011030 | 10 | 0 | 0.0 | 0.0 | 0.00 | 0.00 | 0.00 | 80 | 1016.6 |
| 20260506010531 | 10 | 0 | 0.0 | 0.0 | 0.00 | 0.00 | 0.00 | 80 | 1016.6 |
| 20260506010040 | 10 | 0 | 0.0 | 0.0 | 0.00 | 0.00 | 0.00 | 79 | 1016.6 |
| 20260506005530 | 10 | 0 | 0.0 | 0.0 | 0.00 | 0.00 | 0.00 | 79 | 1016.6 |
| 20260506005029 | 10 | 0 | 0.0 | 0.0 | 0.00 | 0.00 | 0.00 | 79 | 1016.7 |
| 20260506004546 | 10 | 0 | 0.0 | 0.0 | 0.00 | 0.00 | 0.00 | 79 | 1016.6 |
| 20260506004034 | 11 | 0 | 0.0 | 0.0 | 0.00 | 0.00 | 0.00 | 78 | 1016.7 |
| 20260506003532 | 11 | 0 | 0.0 | 0.0 | 0.00 | 0.00 | 0.00 | 77 | 1016.7 |
| 20260506003047 | 11 | 0 | 0.0 | 0.0 | 0.00 | 0.00 | 0.00 | 77 | 1016.6 |
| 20260506002532 | 11 | 0 | 0.0 | 0.0 | 0.00 | 0.00 | 0.00 | 77 | 1016.7 |
| 20260506002030 | 11 | 0 | 0.0 | 0.0 | 0.00 | 0.00 | 0.00 | 77 | 1016.7 |
| 20260506001548 | 11 | 0 | 0.0 | 0.0 | 0.00 | 0.00 | 0.00 | 77 | 1016.5 |
| 20260506001032 | 11 | 0 | 0.0 | 0.0 | 0.00 | 0.00 | 0.00 | 76 | 1016.6 |
| 20260506000530 | 11 | 0 | 0.0 | 0.0 | 0.00 | 0.00 | 0.00 | 76 | 1016.7 |
| 20260506000055 | 11 | 0 | 0.0 | 0.0 | 0.00 | 0.00 | 0.00 | 75 | 1016.8 |
| 20260505235534 | 11 | 0 | 0.0 | 0.0 | 0.00 | 0.00 | 0.00 | 75 | 1016.7 |
| 20260505235033 | 11 | 0 | 0.0 | 1.6 | 0.00 | 0.00 | 0.00 | 75 | 1016.7 |
| 20260505234543 | 11 | 0 | 0.0 | 1.6 | 0.00 | 0.00 | 0.00 | 75 | 1016.6 |
| 20260505234031 | 11 | 0 | 0.0 | 1.6 | 0.00 | 0.00 | 0.00 | 74 | 1016.7 |
| 20260505233532 | 11 | 0 | 0.0 | 1.6 | 0.00 | 0.00 | 0.00 | 72 | 1016.7 |
| 20260505233050 | 11 | 0 | 0.0 | 0.0 | 0.00 | 0.00 | 0.00 | 72 | 1016.6 |
| 20260505232534 | 11 | 0 | 0.0 | 3.2 | 0.00 | 0.00 | 0.00 | 72 | 1016.6 |
| 20260505232030 | 11 | 0 | 0.0 | 3.2 | 0.00 | 0.00 | 0.00 | 71 | 1016.6 |
| 20260505231553 | 11 | 0 | 0.0 | 3.2 | 0.00 | 0.00 | 0.00 | 72 | 1016.6 |
| 20260505231033 | 11 | 0 | 0.0 | 3.2 | 0.00 | 0.00 | 0.00 | 72 | 1016.5 |
| 20260505230558 | 11 | 148 | 0.0 | 3.2 | 0.00 | 0.00 | 0.00 | 72 | 1016.4 |
| 20260505230048 | 11 | 0 | 0.0 | 3.2 | 0.00 | 0.00 | 0.00 | 73 | 1016.4 |
| 20260505225530 | 11 | 0 | 0.0 | 3.2 | 0.00 | 0.00 | 0.00 | 73 | 1016.6 |
| 20260505225031 | 11 | 0 | 0.0 | 3.2 | 0.00 | 0.00 | 0.00 | 73 | 1016.5 |
| 20260505224550 | 11 | 148 | 0.0 | 1.6 | 0.00 | 0.00 | 0.00 | 73 | 1016.6 |
| 20260505224030 | 11 | 0 | 0.0 | 4.8 | 0.00 | 0.00 | 0.00 | 73 | 1016.5 |
| 20260505223530 | 11 | 0 | 0.0 | 4.8 | 0.00 | 0.00 | 0.00 | 73 | 1016.6 |
| 20260505223045 | 11 | 0 | 0.0 | 3.2 | 0.00 | 0.00 | 0.00 | 72 | 1016.5 |
| 20260505222530 | 11 | 0 | 0.0 | 3.2 | 0.00 | 0.00 | 0.00 | 72 | 1016.6 |
| 20260505222038 | 11 | 148 | 0.0 | 1.6 | 0.00 | 0.00 | 0.00 | 72 | 1016.7 |
| 20260505221600 | 11 | 0 | 0.0 | 1.6 | 0.00 | 0.00 | 0.00 | 72 | 1016.7 |
| 20260505221030 | 11 | 0 | 0.0 | 3.2 | 0.00 | 0.00 | 0.00 | 71 | 1016.6 |
| 20260505220530 | 11 | 0 | 0.0 | 3.2 | 0.00 | 0.00 | 0.00 | 71 | 1016.6 |
| 20260505220103 | 11 | 0 | 0.0 | 3.2 | 0.00 | 0.00 | 0.00 | 71 | 1016.7 |
| 20260505215534 | 11 | 0 | 0.0 | 0.0 | 0.00 | 0.00 | 0.00 | 71 | 1016.8 |
| 20260505215032 | 11 | 0 | 0.0 | 0.0 | 0.00 | 0.00 | 0.00 | 71 | 1016.8 |
| 20260505214554 | 11 | 0 | 0.0 | 0.0 | 0.00 | 0.00 | 0.00 | 72 | 1016.7 |
| 20260505214032 | 11 | 0 | 0.0 | 4.8 | 0.00 | 0.00 | 0.00 | 73 | 1016.7 |
| 20260505213531 | 12 | 0 | 0.0 | 4.8 | 0.00 | 0.00 | 0.00 | 74 | 1016.8 |
| 20260505213045 | 12 | 0 | 0.0 | 4.8 | 0.00 | 0.00 | 0.00 | 74 | 1016.7 |
| 20260505212532 | 12 | 0 | 0.0 | 3.2 | 0.00 | 0.00 | 0.00 | 75 | 1016.8 |
| 20260505212030 | 12 | 0 | 0.0 | 3.2 | 0.00 | 0.00 | 0.00 | 75 | 1016.9 |
| 20260505211609 | 12 | 0 | 0.0 | 1.6 | 0.00 | 0.00 | 0.00 | 76 | 1016.9 |
| 20260505211029 | 12 | 0 | 0.0 | 4.8 | 0.00 | 0.00 | 0.00 | 76 | 1016.8 |
| 20260505210532 | 12 | 0 | 0.0 | 4.8 | 0.00 | 0.00 | 0.00 | 75 | 1017.0 |
| 20260505210047 | 12 | 0 | 1.6 | 4.8 | 0.00 | 0.00 | 0.00 | 73 | 1016.9 |
| 20260505205533 | 12 | 152 | 3.2 | 6.4 | 0.00 | 0.00 | 0.00 | 70 | 1016.9 |
| 20260505205030 | 12 | 155 | 4.8 | 6.4 | 0.00 | 0.00 | 0.00 | 70 | 1016.8 |
| 20260505204555 | 12 | 177 | 0.0 | 1.6 | 0.00 | 0.00 | 0.00 | 70 | 1017.0 |
| 20260505204032 | 12 | 0 | 0.0 | 0.0 | 0.00 | 0.00 | 0.00 | 70 | 1017.0 |
| 20260505203532 | 12 | 0 | 0.0 | 0.0 | 0.00 | 0.00 | 0.00 | 71 | 1016.8 |
| 20260505203047 | 12 | 0 | 0.0 | 0.0 | 0.00 | 0.00 | 0.00 | 70 | 1016.8 |
| 20260505202530 | 12 | 0 | 0.0 | 0.0 | 0.00 | 0.00 | 0.00 | 70 | 1016.8 |
| 20260505202033 | 12 | 0 | 0.0 | 0.0 | 0.00 | 0.00 | 0.00 | 70 | 1016.8 |
| 20260505201550 | 12 | 0 | 0.0 | 0.0 | 0.00 | 0.00 | 0.00 | 70 | 1016.6 |
| 20260505201029 | 11 | 0 | 0.0 | 0.0 | 0.00 | 0.00 | 0.00 | 71 | 1016.7 |
| 20260505200531 | 11 | 0 | 0.0 | 0.0 | 0.00 | 0.00 | 0.00 | 72 | 1016.8 |
| 20260505200051 | 11 | 0 | 0.0 | 0.0 | 0.00 | 0.00 | 0.00 | 73 | 1016.7 |
| 20260505195530 | 12 | 0 | 0.0 | 0.0 | 0.00 | 0.00 | 0.00 | 75 | 1016.7 |
| 20260505195032 | 12 | 0 | 0.0 | 0.0 | 0.00 | 0.00 | 0.00 | 76 | 1016.7 |
| 20260505194542 | 12 | 0 | 0.0 | 0.0 | 0.00 | 0.00 | 0.00 | 77 | 1016.7 |
| 20260505194035 | 12 | 0 | 0.0 | 0.0 | 0.00 | 0.00 | 0.00 | 77 | 1016.8 |
| 20260505193530 | 12 | 0 | 0.0 | 0.0 | 0.00 | 0.00 | 0.00 | 78 | 1016.7 |
| 20260505193041 | 12 | 0 | 0.0 | 0.0 | 0.00 | 0.00 | 0.00 | 78 | 1016.7 |
| 20260505192534 | 12 | 0 | 0.0 | 0.0 | 0.00 | 0.00 | 0.00 | 79 | 1016.8 |
| 20260505192030 | 13 | 0 | 0.0 | 1.6 | 0.00 | 0.00 | 0.00 | 79 | 1016.7 |
| 20260505191539 | 13 | 0 | 0.0 | 1.6 | 0.00 | 0.00 | 0.00 | 80 | 1016.8 |
| 20260505191030 | 13 | 0 | 0.0 | 0.0 | 0.00 | 0.00 | 0.00 | 81 | 1016.7 |
| 20260505190531 | 13 | 0 | 0.0 | 0.0 | 0.00 | 0.00 | 0.00 | 81 | 1016.7 |
| 20260505190044 | 13 | 0 | 0.0 | 3.2 | 0.00 | 0.00 | 0.00 | 81 | 1016.6 |
| 20260505185530 | 13 | 0 | 0.0 | 3.2 | 0.00 | 0.00 | 0.00 | 81 | 1016.7 |
| 20260505185032 | 13 | 178 | 0.0 | 3.2 | 0.00 | 0.00 | 0.00 | 82 | 1016.6 |
| 20260505184545 | 13 | 0 | 0.0 | 3.2 | 0.00 | 0.00 | 0.00 | 82 | 1016.7 |
| 20260505184032 | 13 | 0 | 0.0 | 1.6 | 0.00 | 0.00 | 0.00 | 81 | 1016.7 |
| 20260505183531 | 13 | 0 | 0.0 | 1.6 | 0.00 | 0.00 | 0.00 | 81 | 1016.6 |
| 20260505183042 | 14 | 0 | 0.0 | 1.6 | 0.00 | 0.00 | 0.00 | 80 | 1016.6 |
| 20260505182530 | 14 | 0 | 0.0 | 3.2 | 0.00 | 0.00 | 0.00 | 79 | 1016.6 |
| 20260505182032 | 14 | 0 | 0.0 | 4.8 | 0.00 | 0.00 | 0.00 | 79 | 1016.6 |
| 20260505181604 | 15 | 0 | 0.0 | 4.8 | 0.00 | 0.00 | 0.00 | 78 | 1016.7 |
| 20260505181033 | 15 | 0 | 0.0 | 3.2 | 0.00 | 0.00 | 0.00 | 77 | 1016.8 |
| 20260505180531 | 15 | 0 | 0.0 | 6.4 | 0.00 | 0.00 | 0.00 | 77 | 1016.7 |
| 20260505180047 | 15 | 190 | 0.0 | 8.0 | 0.00 | 0.00 | 0.00 | 77 | 1016.8 |
| 20260505175531 | 15 | 169 | 0.0 | 8.0 | 0.00 | 0.00 | 0.00 | 76 | 1016.7 |
| 20260505175032 | 15 | 0 | 1.6 | 8.0 | 0.00 | 0.00 | 0.00 | 75 | 1016.7 |
| 20260505174546 | 16 | 193 | 1.6 | 11.3 | 0.00 | 0.00 | 0.00 | 75 | 1016.7 |
| 20260505174031 | 16 | 227 | 1.6 | 11.3 | 0.00 | 0.00 | 0.00 | 74 | 1016.7 |
| 20260505173529 | 16 | 222 | 1.6 | 6.4 | 0.00 | 0.00 | 0.00 | 74 | 1016.7 |